Location: Poughquag
(41.6090°N, 73.6820°W)
Time: 03:34:52
(UTC-04:00)

ACS3 Solar Sail - Pass Details

Date: 26 June 2024
Orbit: 920 x 1019 km, 97.5° (Epoch: 20 June)

Event Time Altitude Azimuth Distance (km) Brightness Sun altitude
Exits shadow 21:31:44 12° 135° (SE) 2,522 3.3 -9.5°
Maximum altitude 21:36:50 40° 69° (ENE) 1,377 2.4 -10.2°
Drops below altitude 10° 21:42:27 10° 2° (N) 2,731 4.8 -10.9°
Enters shadow 22:44:12 -62° 170° (S) 12,343 7.4 -18.1°
